Temperature
17 17 18 18 18 18 17 15 14 14 12 10 10 10 10 10 9 9 9 10 10 10 11 12 12 13 13 12 12 13 13 14 14 15 15 15 14 14 13 13 12 12 12 12
18 19 18 18 18 17 15 14 14 11 9 9 9 9 9 9 9 9 9 9 9 9 10 10 10 11 11 11 11 11 12 12 13 14 14 15 14 14 13 13 12 12 12 12
16 17 18 16 14 14 11 10 10 10 9 9 9 8 8 8 8 8 8 8 8 9 9 9 9 9 9 10 10 10 11 11 12 12 13 14 14 13 13 13 12 12 12 11
14 17 18 13 13 12 10 9 9 9 9 8 7 7 7 8 8 9 9 9 9 9 9 9 9 9 9 9 9 10 10 10 11 11 12 12 13 13 13 12 12 12 12 11
13 16 16 14 13 12 12 9 9 9 9 9 9 8 9 10 10 10 10 10 10 10 10 10 10 9 9 9 9 9 9 10 10 10 11 11 11 11 12 12 12 12 12 11
14 16 15 11 12 12 12 10 9 9 9 10 9 8 8 10 10 10 10 10 10 10 10 10 10 9 9 9 9 9 9 9 9 9 10 10 10 10 11 11 11 11 11 11
13 14 11 10 11 12 10 9 11 11 10 10 9 9 10 10 10 10 10 10 10 10 10 10 10 9 9 9 9 9 8 8 8 9 9 9 9 9 10 10 11 11 11 11
11 12 11 10 10 10 10 11 11 11 10 10 9 9 9 9 9 9 9 9 9 9 9 9 9 9 9 9 9 9 8 8 8 8 8 8 8 8 9 9 10 10 10 11
9 9 10 10 11 11 11 11 10 10 10 9 9 8 8 8 8 8 8 8 8 8 8 8 8 8 8 8 8 8 8 8 8 8 8 8 8 8 8 8 9 9 10 11
8 9 10 11 11 11 11 10 9 9 9 9 8 8 8 8 7 7 7 7 7 7 7 7 7 7 7 7 7 7 7 7 7 8 8 8 7 7 7 7 8 9 10 11
8 9 10 11 11 10 9 9 9 8 8 8 8 7 7 7 7 7 7 7 6 6 6 6 6 6 6 6 6 6 6 6 7 7 7 7 7 7 7 7 7 8 9 11
8 10 9 9 9 9 9 8 8 8 8 7 7 7 6 6 6 6 6 5 5 5 5 5 5 5 5 5 5 5 5 6 6 7 7 7 6 6 7 6 7 7 8 10
10 10 9 9 9 9 8 8 8 7 7 6 6 6 6 5 5 4 4 4 4 4 4 4 4 4 4 4 4 4 4 5 6 7 7 6 6 6 6 6 7 7 8 9
10 9 9 9 9 8 8 8 7 6 6 6 6 5 5 4 4 4 4 4 3 3 3 3 3 3 3 3 3 3 4 5 6 6 7 6 6 6 5 5 6 7 8 9
9 9 9 8 8 8 7 7 6 6 5 5 5 4 4 3 3 3 3 3 3 3 3 3 3 3 3 3 3 3 4 5 6 6 6 6 6 5 5 5 6 8 9 9
9 8 8 8 8 7 6 6 5 5 5 4 4 4 3 3 3 3 3 3 3 3 3 3 3 3 3 3 3 3 4 4 5 6 6 6 6 5 5 5 6 8 9 10
8 7 8 7 7 6 6 5 5 4 4 4 3 3 3 3 3 4 3 3 3 3 3 2 2 3 3 3 3 3 3 4 5 5 6 6 6 6 6 6 7 8 9 10
8 8 8 7 6 6 5 5 4 4 4 4 4 3 3 3 3 4 3 3 3 3 3 2 2 2 2 2 3 3 3 4 5 5 5 6 6 6 6 7 8 8 9 10
8 8 7 6 6 6 5 4 4 4 5 4 3 3 3 3 3 4 3 3 3 3 3 3 2 2 2 2 3 3 3 4 4 5 6 6 6 6 6 7 8 9 9 9
7 7 6 6 6 5 4 4 4 5 5 5 4 2 2 3 3 4 4 4 4 4 4 3 3 3 2 2 3 3 4 4 5 5 6 6 6 7 7 8 8 9 9 9
7 6 6 5 5 5 4 4 4 5 5 5 3 2 2 3 3 4 4 4 4 4 4 4 4 4 3 3 3 4 4 5 5 6 6 6 7 7 7 8 8 9 9 10
6 6 5 5 4 4 5 4 5 5 5 4 3 2 2 3 3 4 4 4 4 4 4 5 5 5 4 4 4 5 5 5 6 6 6 7 7 7 8 8 9 10 10 11
6 5 5 4 4 4 4 4 5 5 4 3 2 2 2 3 3 4 4 4 5 5 5 5 5 5 5 6 6 6 6 6 6 7 7 7 7 8 8 9 10 11 11 11
5 5 4 4 4 4 4 4 4 5 4 3 2 2 3 3 4 4 4 5 5 5 6 6 6 6 6 6 6 7 7 7 7 7 7 8 8 9 9 10 11 11 11 11
5 4 4 4 4 3 3 4 4 4 3 2 2 2 3 3 4 4 5 5 6 6 6 7 7 6 7 7 7 7 7 8 8 9 9 10 10 10 10 11 11 11 11 11
4 4 4 4 3 3 3 3 3 3 2 1 2 2 3 3 4 5 6 6 6 7 7 7 7 7 7 7 8 8 9 9 10 10 11 11 11 11 11 11 11 11 12 12
4 4 4 4 4 3 4 4 3 2 2 2 2 3 3 3 5 5 6 6 7 7 7 7 7 8 8 8 9 9 10 10 11 11 11 11 11 11 11 12 12 12 12 12
Wind_Speed
8 7 4 6 9 7 3 6 7 2 5 7 10 9 9 9 12 14 15 16 15 14 13 13 13 12 11 11 11 11 11 10 10 11 11 10 10 9 7 6 5 3 2 1
4 5 4 4 6 4 5 6 4 8 7 8 9 12 13 14 16 18 18 19 18 16 15 14 14 14 13 11 11 10 11 11 11 11 10 11 11 9 8 7 6 5 4 1
4 5 4 5 10 5 7 7 7 5 4 10 12 15 15 16 17 18 17 17 16 15 14 13 12 13 13 12 10 10 9 10 10 11 11 10 9 9 10 9 8 7 6 4
2 4 1 3 5 9 9 7 7 5 5 9 11 12 11 13 16 16 15 14 14 14 13 12 12 13 13 11 10 10 10 9 9 10 10 9 8 10 10 8 9 8 7 7
3 2 1 5 6 6 3 3 2 4 10 11 12 11 10 14 16 16 14 14 14 14 14 12 13 13 13 12 11 11 11 10 9 9 10 10 8 9 8 8 9 8 7 8
3 2 2 5 12 14 2 1 4 8 13 14 12 11 10 9 11 14 16 16 15 14 13 13 14 11 11 12 11 12 12 11 10 9 8 9 9 9 7 8 10 10 9 9
3 2 4 6 12 10 6 8 14 14 15 15 12 15 17 16 17 18 19 20 19 17 15 14 13 11 13 13 13 14 12 11 11 10 8 8 7 7 7 8 9 10 10 9
5 5 3 6 7 6 7 12 14 16 15 17 18 19 19 19 18 18 19 18 18 16 18 15 12 11 14 15 16 14 12 13 13 11 9 8 6 6 7 8 10 11 10 9
3 1 6 5 4 8 11 14 15 15 17 17 18 19 18 18 18 18 18 18 16 16 18 15 13 12 15 16 15 13 13 14 14 12 9 8 8 6 6 7 9 11 11 11
2 3 6 9 11 12 12 13 14 15 16 15 18 20 20 19 18 17 17 17 16 16 18 17 15 14 15 15 13 13 14 14 13 11 10 9 8 7 5 5 8 11 13 13
3 7 10 9 10 12 11 12 14 15 16 15 18 21 22 21 20 19 18 16 15 16 18 19 17 16 15 13 12 13 14 14 12 10 10 9 9 8 8 6 7 10 14 15
5 9 7 11 11 10 11 13 15 17 16 15 17 21 22 20 18 19 19 18 18 19 20 20 18 17 14 13 13 13 12 12 10 9 8 8 8 8 10 10 12 17 18 16
7 8 8 12 10 10 11 14 17 17 18 21 16 18 21 22 19 21 22 22 23 23 23 21 20 19 15 14 14 12 12 12 9 9 8 8 7 6 7 8 12 17 19 20
9 8 9 9 10 12 15 15 15 17 17 19 19 21 23 25 25 24 24 24 23 23 22 21 20 19 15 13 13 13 12 14 12 9 8 7 7 6 6 7 9 7 12 18
10 10 11 12 12 14 15 16 18 18 19 20 20 22 24 25 25 25 24 23 22 22 21 21 20 18 13 12 12 12 10 8 8 8 8 7 7 6 6 9 10 7 8 9
11 11 12 13 15 16 16 17 18 20 23 23 24 24 24 24 24 24 23 22 21 21 20 20 19 16 12 11 11 9 8 11 9 7 7 7 6 6 7 8 8 9 12 12
10 11 12 15 16 17 16 16 19 22 23 24 25 25 25 25 24 24 22 20 18 17 17 17 16 13 10 9 8 6 6 7 9 7 7 7 6 6 8 9 8 9 11 13
10 10 13 15 17 17 18 18 20 22 23 23 24 24 25 25 24 23 22 20 17 16 14 13 13 11 8 7 6 6 6 6 5 6 6 6 6 6 8 8 7 10 11 12
12 12 14 15 14 14 15 18 20 21 22 21 22 24 25 24 24 22 19 18 17 16 13 12 13 10 6 6 6 5 6 7 6 6 5 6 7 7 7 6 6 10 12 13
11 13 14 14 13 14 16 18 19 20 20 20 22 24 25 25 25 23 18 14 12 12 13 13 10 7 6 5 5 3 5 5 5 5 5 6 6 6 5 4 7 10 12 13
13 14 14 13 14 16 16 17 18 19 20 20 22 24 25 26 25 22 18 13 12 13 13 13 8 5 4 4 5 4 4 4 5 6 6 5 5 5 4 5 8 10 11 12
11 12 13 13 15 18 17 16 17 19 19 21 23 24 25 25 25 22 18 12 13 14 12 9 7 7 6 6 5 5 5 6 6 6 5 5 5 5 5 7 9 10 10 11
10 10 11 14 16 18 18 17 18 18 19 21 23 24 25 23 20 19 18 15 15 17 13 9 9 11 10 6 5 6 6 6 6 6 6 6 6 6 8 9 9 9 10 10
8 9 12 14 16 16 18 20 20 18 19 19 20 22 22 20 18 16 16 20 21 20 13 10 11 10 7 4 4 5 5 5 5 5 6 5 6 8 9 9 8 8 9 11
8 9 11 15 15 14 16 18 19 19 19 18 20 21 19 16 17 19 19 20 23 19 13 10 9 6 2 1 1 1 2 2 2 3 5 7 9 9 10 9 9 8 8 8
7 10 12 13 12 12 14 14 15 16 17 19 19 19 19 18 19 18 17 20 22 19 13 9 8 6 4 3 2 1 1 1 3 5 7 8 9 9 9 9 10 8 8 7
8 9 10 11 11 12 13 14 15 16 17 18 20 19 19 18 18 19 20 18 17 14 11 10 9 8 7 6 5 4 5 5 6 6 6 7 7 7 8 9 8 7 7 7
Wind_Direction
239 253 269 270 289 309 236 222 223 268 87 19 6 3 358 1 2 360 356 351 348 343 340 335 333 332 331 328 330 331 328 320 299 283 267 253 240 228 218 213 216 209 209 321
277 280 274 284 329 2 29 16 57 88 56 357 351 354 349 347 348 345 342 337 331 328 324 318 318 317 313 312 315 320 325 327 323 312 291 266 247 226 210 203 201 196 194 210
272 304 343 8 353 31 57 32 30 56 15 343 344 347 341 329 326 324 323 316 308 305 300 296 298 304 296 290 297 305 310 316 322 328 320 294 262 231 214 201 195 199 197 197
299 3 331 135 75 93 101 76 69 66 347 325 302 292 278 270 269 272 276 282 288 290 287 286 291 299 293 287 294 299 302 307 315 324 328 318 282 246 227 205 199 201 198 197
76 333 315 99 7 355 345 96 19 325 304 294 282 282 271 257 250 255 265 274 277 278 280 282 286 292 294 288 291 295 296 298 306 312 317 317 302 269 241 216 207 199 193 190
70 308 319 354 326 320 248 107 254 278 290 298 309 305 295 272 270 277 286 290 287 286 284 280 276 279 282 281 285 286 285 284 285 288 293 302 304 291 254 226 217 202 193 189
20 302 62 326 332 21 41 309 297 289 285 288 279 275 283 285 285 285 286 286 285 284 281 275 271 274 275 274 272 271 272 272 269 268 270 276 290 302 276 241 220 203 194 187
8 15 2 322 22 31 286 271 275 281 282 284 285 287 290 291 289 288 288 284 280 277 275 275 272 271 275 275 272 272 273 273 266 261 263 271 266 291 288 257 229 207 193 183
94 228 250 279 255 251 258 273 280 288 294 297 298 297 296 294 292 292 288 285 280 276 277 275 268 262 267 272 274 273 273 273 270 266 262 261 254 258 283 269 242 209 195 189
68 297 291 276 266 273 285 292 298 302 303 303 299 299 299 299 297 293 289 286 285 283 281 277 269 262 260 267 269 267 267 268 266 263 264 264 257 243 245 267 255 216 195 192
316 284 294 286 289 301 312 314 310 308 305 300 298 298 298 300 297 296 292 289 286 283 281 277 271 262 258 260 263 261 263 264 258 254 256 262 259 245 237 245 262 240 208 194
269 272 283 291 299 305 308 307 305 306 305 300 297 298 301 301 299 298 296 293 292 289 285 282 275 268 262 258 257 256 264 262 251 247 248 251 259 266 248 253 271 254 230 200
256 286 286 285 292 297 301 302 304 305 305 308 305 300 304 305 305 302 300 299 298 296 293 288 283 277 271 261 252 248 254 255 245 241 241 244 251 267 276 280 270 241 207 191
289 305 300 293 291 298 303 304 304 306 305 305 307 308 310 311 310 307 305 303 300 297 294 291 287 282 274 261 251 248 247 248 239 236 234 235 241 254 261 278 276 220 190 182
299 303 293 293 298 305 309 314 317 316 312 311 311 314 315 314 311 308 305 303 300 297 295 292 287 281 271 259 251 243 239 234 231 230 231 234 240 249 255 270 267 205 164 168
300 306 307 307 307 311 315 318 318 317 318 316 317 319 317 313 309 306 305 306 307 305 303 298 291 282 270 260 246 232 224 232 230 225 231 240 246 253 263 268 256 197 175 165
318 314 312 312 314 316 316 315 317 319 318 317 318 318 316 314 312 312 312 312 309 306 304 305 301 290 271 254 236 225 218 231 240 232 228 237 244 256 268 270 243 192 172 164
305 299 297 303 311 315 315 314 316 317 315 315 317 317 316 316 316 316 317 315 312 310 308 312 314 305 279 258 239 228 225 224 220 224 230 237 246 257 269 262 224 178 162 160
308 300 301 304 306 306 309 312 315 315 315 319 320 318 316 315 316 316 315 313 312 313 313 314 312 312 293 275 266 222 212 212 216 226 233 245 256 261 258 244 191 159 155 160
301 298 302 306 307 307 310 314 316 317 319 321 321 321 320 320 319 319 313 306 302 302 307 312 311 300 283 270 263 213 203 208 220 236 241 246 251 252 245 206 163 154 157 164
301 304 308 310 310 312 315 316 319 320 321 324 325 324 321 319 319 320 316 312 306 306 312 310 307 292 272 256 252 228 221 225 235 238 235 236 242 242 220 178 160 156 160 167
303 308 309 311 314 319 322 321 321 321 324 327 327 325 323 322 322 322 317 314 309 305 306 300 295 281 268 256 240 234 232 230 229 224 224 228 228 222 198 173 160 159 162 166
307 308 311 315 318 319 320 324 326 327 328 328 326 325 323 321 322 323 326 324 322 315 310 294 282 281 277 256 232 229 227 224 216 212 217 222 217 199 177 164 158 157 158 160
311 311 313 316 321 324 327 328 327 327 326 324 322 321 323 325 326 326 323 320 324 322 322 306 289 287 281 244 227 222 221 221 222 225 225 208 180 163 156 154 153 153 154 155
314 315 320 328 331 329 325 325 327 328 329 328 325 325 329 330 328 327 327 328 332 334 338 334 327 320 296 235 226 244 270 275 245 196 166 154 150 149 150 152 154 154 155 156
322 326 324 321 323 324 326 329 329 329 330 329 330 333 335 336 332 332 334 334 336 340 351 2 13 24 50 76 81 34 6 44 99 116 128 136 141 143 146 151 156 160 159 159
327 325 324 329 330 329 329 330 329 330 330 328 331 334 337 338 338 339 339 339 343 350 2 15 24 33 43 52 52 44 44 53 69 90 113 127 137 142 147 151 156 157 160 164
Height
1511 1508 1508 1508 1506 1505 1509 1513 1518 1515 1520 1525 1524 1521 1518 1514 1509 1505 1501 1498 1495 1492 1488 1486 1483 1480 1477 1475 1472 1468 1465 1461 1458 1456 1455 1454 1453 1452 1451 1450 1449 1448 1447 1446
1509 1504 1505 1507 1506 1506 1510 1514 1515 1521 1529 1529 1526 1522 1518 1514 1510 1505 1500 1497 1494 1489 1485 1482 1479 1475 1472 1469 1467 1464 1460 1456 1452 1449 1447 1446 1446 1446 1446 1445 1445 1445 1444 1444
1519 1510 1506 1517 1520 1516 1524 1528 1527 1529 1535 1530 1525 1521 1518 1514 1510 1505 1498 1495 1492 1488 1484 1480 1477 1473 1468 1465 1462 1459 1455 1452 1449 1444 1441 1439 1438 1438 1439 1439 1440 1440 1441 1442
1522 1514 1519 1533 1524 1524 1528 1530 1530 1530 1530 1528 1524 1518 1512 1509 1504 1499 1495 1492 1489 1484 1480 1475 1471 1467 1462 1459 1456 1453 1450 1447 1444 1440 1436 1433 1431 1431 1432 1433 1434 1436 1437 1438
1529 1524 1520 1525 1525 1525 1524 1531 1531 1528 1524 1520 1515 1511 1506 1504 1500 1496 1492 1487 1482 1478 1473 1468 1465 1461 1457 1453 1451 1447 1444 1441 1438 1435 1431 1428 1426 1425 1424 1426 1428 1430 1432 1434
1526 1525 1529 1538 1530 1523 1525 1528 1530 1526 1522 1518 1514 1510 1501 1499 1495 1490 1485 1479 1474 1470 1465 1460 1457 1454 1450 1446 1443 1441 1438 1435 1433 1430 1427 1423 1421 1419 1418 1418 1420 1424 1427 1429
1530 1530 1536 1541 1533 1526 1537 1539 1529 1524 1519 1514 1510 1504 1495 1490 1486 1482 1476 1470 1465 1461 1456 1451 1448 1445 1440 1436 1434 1433 1431 1428 1426 1424 1421 1418 1415 1413 1412 1411 1413 1416 1420 1424
1539 1538 1544 1539 1535 1538 1540 1530 1524 1518 1513 1507 1501 1495 1489 1483 1477 1471 1466 1461 1456 1451 1445 1441 1439 1436 1430 1426 1425 1424 1422 1420 1417 1415 1413 1410 1408 1406 1405 1405 1405 1407 1412 1418
1545 1548 1543 1539 1537 1533 1529 1523 1518 1513 1508 1502 1495 1488 1481 1474 1467 1461 1455 1450 1445 1440 1433 1430 1428 1425 1420 1417 1416 1414 1412 1410 1407 1405 1404 1402 1400 1398 1397 1398 1398 1398 1403 1409
1545 1543 1540 1536 1532 1528 1525 1520 1514 1508 1502 1496 1488 1480 1472 1465 1458 1451 1444 1439 1433 1428 1421 1417 1415 1412 1409 1406 1405 1402 1400 1398 1397 1396 1394 1392 1391 1389 1388 1389 1390 1390 1394 1401
1546 1541 1536 1531 1529 1525 1520 1514 1508 1502 1495 1489 1481 1472 1465 1456 1448 1440 1433 1427 1421 1415 1409 1403 1400 1398 1396 1394 1393 1390 1388 1387 1387 1386 1385 1383 1382 1381 1380 1380 1381 1383 1386 1393
1546 1539 1535 1530 1525 1520 1514 1508 1502 1494 1486 1479 1473 1464 1455 1446 1437 1429 1421 1415 1408 1402 1395 1390 1386 1383 1381 1380 1379 1377 1376 1376 1376 1377 1376 1375 1374 1372 1370 1370 1370 1372 1378 1387
1540 1536 1532 1526 1521 1515 1508 1502 1496 1489 1481 1472 1464 1456 1446 1435 1426 1418 1410 1402 1395 1388 1381 1376 1371 1367 1366 1365 1364 1363 1364 1364 1366 1368 1368 1367 1366 1364 1362 1361 1360 1361 1369 1380
1537 1531 1525 1520 1515 1510 1503 1497 1489 1482 1474 1466 1456 1446 1436 1426 1416 1407 1399 1391 1383 1375 1368 1363 1357 1353 1352 1350 1349 1349 1352 1354 1356 1359 1360 1360 1359 1357 1355 1354 1353 1353 1362 1374
1532 1528 1522 1516 1510 1504 1498 1490 1482 1474 1465 1456 1447 1437 1427 1417 1406 1397 1388 1380 1372 1363 1356 1350 1344 1340 1339 1337 1337 1338 1341 1344 1348 1351 1352 1353 1352 1350 1348 1347 1347 1349 1357 1368
1527 1522 1517 1511 1505 1498 1492 1484 1476 1466 1457 1447 1437 1428 1418 1409 1398 1388 1379 1371 1362 1353 1345 1339 1332 1328 1326 1326 1327 1329 1333 1337 1341 1344 1345 1346 1345 1344 1342 1341 1342 1346 1353 1363
1522 1516 1510 1504 1499 1492 1486 1479 1471 1460 1450 1439 1430 1420 1410 1399 1389 1379 1370 1362 1354 1346 1338 1330 1324 1319 1317 1317 1319 1322 1325 1330 1335 1338 1339 1340 1339 1339 1338 1337 1339 1343 1350 1359
1520 1515 1510 1503 1496 1488 1480 1473 1464 1454 1443 1434 1424 1414 1403 1393 1382 1372 1363 1354 1346 1338 1331 1325 1319 1314 1312 1312 1314 1317 1320 1324 1329 1332 1334 1335 1335 1334 1334 1334 1336 1341 1348 1357
1516 1511 1505 1498 1492 1484 1476 1467 1457 1447 1438 1428 1418 1408 1398 1388 1377 1366 1357 1348 1340 1332 1326 1320 1315 1312 1310 1310 1311 1313 1316 1320 1324 1327 1329 1330 1330 1330 1330 1331 1334 1340 1346 1353
1511 1505 1499 1493 1486 1479 1470 1461 1451 1441 1433 1424 1413 1403 1392 1382 1371 1360 1350 1343 1336 1330 1323 1318 1313 1310 1309 1309 1310 1312 1315 1318 1320 1323 1324 1325 1326 1327 1328 1330 1334 1339 1345 1351
1506 1500 1493 1487 1479 1472 1464 1454 1445 1436 1428 1419 1410 1400 1388 1376 1365 1355 1345 1336 1330 1325 1320 1315 1312 1310 1309 1309 1310 1311 1313 1316 1318 1319 1321 1323 1324 1325 1327 1331 1335 1340 1345 1351
1501 1495 1488 1481 1473 1464 1456 1449 1441 1432 1423 1415 1406 1396 1385 1372 1361 1350 1342 1334 1325 1320 1316 1312 1310 1309 1309 1309 1309 1310 1312 1314 1315 1317 1318 1320 1322 1324 1328 1332 1336 1341 1346 1352
1497 1491 1484 1477 1468 1458 1451 1444 1437 1428 1420 1411 1402 1393 1382 1371 1360 1349 1338 1329 1321 1315 1311 1307 1306 1306 1306 1307 1308 1310 1311 1312 1313 1314 1316 1317 1320 1324 1328 1332 1337 1343 1349 1355
1493 1487 1480 1472 1463 1455 1446 1440 1433 1426 1418 1409 1401 1391 1381 1369 1358 1348 1338 1327 1319 1312 1307 1304 1303 1303 1303 1304 1306 1307 1308 1309 1309 1310 1312 1315 1319 1324 1329 1334 1340 1346 1351 1357
1489 1483 1475 1466 1459 1452 1445 1437 1430 1422 1414 1406 1398 1389 1380 1370 1359 1348 1337 1328 1319 1313 1308 1305 1303 1302 1302 1303 1304 1305 1305 1306 1307 1310 1313 1318 1323 1328 1333 1339 1344 1349 1354 1359
1485 1479 1473 1466 1459 1452 1445 1437 1429 1421 1413 1404 1395 1387 1378 1368 1358 1348 1339 1330 1323 1317 1313 1310 1308 1306 1306 1307 1309 1310 1311 1312 1314 1317 1321 1325 1329 1333 1338 1343 1347 1352 1357 1361
1482 1476 1470 1463 1457 1451 1444 1437 1430 1422 1414 1406 1397 1388 1379 1369 1359 1351 1342 1335 1328 1324 1320 1318 1316 1316 1316 1317 1318 1319 1320 1322 1324 1326 1329 1331 1335 1338 1342 1347 1351 1355 1359 1363